Regional Weather Roundup
Issued by NWS

Home | Current Version | Previous Version | Text Only | Print | Product List | Glossary On
Versions: 1 2 3 4 5 6 7 8 9 10 11 12 13 14 15 16 17 18 19 20 21 22 23 24 25 26 27 28 29 30 31 32 33 34 35 36 37 38 39 40 41 42 43 44 45 46 47 48 49 50
000
ASUS43 KMKX 180421
RWRWI

WISCONSIN REGIONAL WEATHER ROUNDUP
NATIONAL WEATHER SERVICE MILWAUKEE/SULLIVAN WI
1000 PM CST WED JAN 17 2018

NOTE: "FAIR" INDICATES FEW OR NO CLOUDS BELOW 12,000 FEET WITH NO
SIGNIFICANT WEATHER AND/OR OBSTRUCTIONS TO VISIBILITY.

WIZ001-002-006>008-014>016-023>028-180500-
NORTHWEST WISCONSIN

CITY           SKY/WX    TMP DP  RH WIND       PRES   REMARKS
SUPERIOR ARPT  FAIR      23  13  66 SW14      29.88F WCI  11
ASHLAND        NOT AVBL
HAYWARD        FAIR      16   8  71 S6        29.92F WCI   7
SIREN          FAIR      25  16  67 SW12      29.96S WCI  15
CUMBERLAND     FAIR      21  12  68 W12       29.96F WCI   9
RICE LAKE      FAIR      23  15  71 CALM      30.00S
CHETEK         FAIR      23  15  70 W7        29.99F WCI  15
LADYSMITH      FAIR      19  12  73 SW6       29.98S WCI  11
EAU CLAIRE     FLURRIES  23  14  68 SW13      30.02F WCI  11
MENOMONIE      FAIR      25  16  67 SW13      30.02F WCI  14
NEW RICHMOND   FAIR      19  13  75 S7        30.01F WCI  10
OSCEOLA        FAIR      24  16  70 SW9       30.03F WCI  14
$$

WIZ003>005-009-010-017-018-180500-
NORTH CENTRAL WISCONSIN

CITY           SKY/WX    TMP DP  RH WIND       PRES   REMARKS
MANITOWISH WTR FAIR      18   8  67 W9        29.88S WCI   6
ARBOR VITAE    FAIR      22  13  70 W12G17    29.89S WCI  10
WOODRUFF       FAIR      22  13  70 W12G17    29.89S WCI  10
RHINELANDER    FAIR      20  11  68 W16       29.90R WCI   6
EAGLE RIVER    FAIR      18   9  68 W10       29.87S WCI   6
LAND O LAKES   FAIR      20  11  67 W7        29.87S WCI  11
PHILLIPS       FAIR      18  10  72 SW9       29.92S WCI   7
TOMAHAWK       FAIR      21  12  68 W7        29.93S WCI  12
MEDFORD        FAIR      19  10  69 SW9       29.96S WCI   7
MERRILL        FAIR      20  11  67 W13       29.96S WCI   8
$$

WIZ029-030-035-036-043>047-180500-
CENTRAL WISCONSIN

CITY           SKY/WX    TMP DP  RH WIND       PRES   REMARKS
WAUSAU         FAIR      20  10  65 VRB6      29.96F WCI  12
MOSINEE        PTCLDY    18  10  73 SW15      29.99F WCI   3
MARSHFIELD     FAIR      19  10  68 W13       29.97F WCI   6
STEVENS POINT  FAIR      19   9  65 SW10      30.01S WCI   7
WAUPACA        FAIR      23  10  58 SW13      30.03S WCI  11
WAUTOMA        FAIR      19   9  65 SW10      30.06S WCI   7
WISC RAPIDS    FAIR      20   8  60 SW12      30.04F WCI   8
CAMP DOUGLAS   CLEAR     21  10  63 W13       30.07S WCI   9
$$

WIZ011>013-019>022-031-037>040-048>050-180500-
NORTHEAST WISCONSIN

CITY           SKY/WX    TMP DP  RH WIND       PRES   REMARKS
ANTIGO         FAIR      19  10  66 W17G25    29.92S WCI   4
SHAWANO        FAIR      25  11  55 W13G22    29.95F WCI  13
OCONTO         FAIR      23   9  55 W12G20    29.95S WCI  11
STURGEON BAY   FAIR      22  10  60 W21       29.95R WCI   6
GREEN BAY      FAIR      20   8  60 SW16      29.99S WCI   6
MANITOWOC      FLURRIES  20  10  65 W23G30    30.00S WCI   3
APPLETON       NOT AVBL
CLINTONVILLE   FAIR      23  10  58 W15G23    29.99S WCI  10
OSHKOSH        FAIR      19   8  62 SW9G16    30.03F WCI   8
$$

WIZ032>034-041-042-053>061-180500-
SOUTHWEST WISCONSIN

CITY           SKY/WX    TMP DP  RH WIND       PRES   REMARKS
LA CROSSE      FAIR      22  12  65 SW10G21   30.13F WCI  11
SPARTA         FAIR      23  13  65 SW5       30.10S WCI  17
VIROQUA        FAIR      20  13  73 SW16G26   30.10F WCI   6
BOSCOBEL       FAIR      20   8  60 SW10      30.18F WCI   9
PRAIRIE DU CHI FAIR      21   8  57 SW9       30.21F WCI  11
PLATTEVILLE    FAIR      19  11  70 SW18      30.19F WCI   4
$$

WIZ056-057-062-063-064-067-068-180500-
SOUTH CENTRAL WISCONSIN

CITY           SKY/WX    TMP DP  RH WIND       PRES   REMARKS
REEDSBURG      FAIR      19   9  63 SW13G20   30.11S WCI   6
BARABOO/DELLS  FAIR      19   9  63 SW16G23   30.09F WCI   4
LONE ROCK      FAIR      19   9  65 W8        30.17F WCI   9
MINERAL POINT  FAIR      21  12  68 SW15G22   30.15F WCI   8
MADISON        FAIR      19   9  65 W10G21    30.14F WCI   7
MIDDLETON      FAIR      21  10  63 SW13G22   30.13F WCI   8
WATERTOWN      FAIR      18  10  73 SW13G22   30.13S WCI   4
MONROE         FAIR      19  10  68 SW24G32   30.15F WCI   2
JANESVILLE     FAIR      19  12  73 SW13G18   30.18F WCI   7
$$

WIZ051-052-058>065-066-070>072-180500-
SOUTHEAST WISCONSIN

CITY           SKY/WX    TMP DP  RH WIND       PRES   REMARKS
MILWAUKEE      FAIR      20  10  65 SW23G40   30.10F WCI   3
WAUKESHA       FAIR      18   9  68 SW17G26   30.12F WCI   2
MILWAUKEE/TIMM FAIR      19   9  63 W22G31    30.10S WCI   3
RACINE         MIX PCPN  18  10  71 W21G40    30.13F WCI   1
BURLINGTON     FAIR      18   9  70 SW20G28   30.16F WCI   1
KENOSHA        MIX PCPN  17   9  70 W31G39    30.14F WCI  -3
FOND DU LAC    FAIR      19   7  59 SW12      30.06F WCI   7
SHEBOYGAN      FAIR      20  10  65 W23G31    30.02F WCI   3
WEST BEND      FAIR      19  10  68 W20G28    30.06S WCI   4
JUNEAU         FAIR      17   9  71 SW17      30.11F WCI   1
$$

LSZ147-162-180500-
LAKE SUPERIOR

STATION/POSITION TIME  TEMP    WIND        PRES    WAVE
                       AIR SEA DIR/SP/G            HT/PER
                 (UTC) (F)     (DEG/KT/KT) (MB)    (FT/S)
DEVILS ISLAND    0400   27     230/ 17/ 22 1011.6R
SAXON HARBOR     0400   25     200/  8/ 22 1011.5
$$

LMZ867-665-643>646-180500-
LAKE MICHIGAN

STATION/POSITION TIME  TEMP    WIND        PRES    WAVE
                       AIR SEA DIR/SP/G            HT/PER
                 (UTC) (F)     (DEG/KT/KT) (MB)    (FT/S)
NORTHPORT PIER   0344   22     230/ 10     1013.2S
KEWAUNEE LAKESHO 0400   22     260/ 14/ 21 1014.4
SHEBOYGAN LAKESH 0400   22     230/ 15/ 21 1018.1F
PORT WASHINGTON  0340   21     260/ 15/ 23 1019.3R
MILWAUKEE LAKESH 0400   21     250/ 20/ 26   N/A
KENOSHA   LAKESH 0400   18     250/ 20/ 28 1021.0
$$

TC  - TEMPERATURE IN CELSIUS
VSB - VISIBILITY IN STATUTE MILES
WCI - WIND CHILL INDEX
HX  - HEAT INDEX





USA.gov is the U.S. government's official web portal to all federal, state and local government web resources and services.